Wind_Speed
12 12 12 12 12 12 12 12 12 13 13 13 13 13 13 14 14 14 14 15 15 16 16 17 18 18 18 19 19 20 20 21 21 21 21 21 20 20 20 20 20 20 20
13 13 13 13 13 13 13 14 14 14 14 14 14 14 15 15 15 15 16 16 17 17 18 18 19 19 20 20 21 21 22 22 22 22 22 22 22 22 22 22 21 21 21
13 13 13 13 13 13 14 14 14 14 14 15 15 15 15 15 16 16 16 17 17 18 18 19 20 20 21 22 22 23 23 23 24 24 24 24 23 23 23 23 23 23 23
12 12 13 13 13 13 14 14 15 15 15 15 15 15 16 16 16 17 17 18 18 19 19 20 20 21 22 22 23 23 24 24 24 25 25 25 24 24 24 24 24 24 24
12 12 13 13 13 13 13 14 15 15 15 15 15 15 16 16 17 17 18 18 19 19 19 20 21 21 22 23 23 24 24 24 24 25 25 25 25 25 25 25 25 25 25
12 12 13 13 13 14 14 14 14 15 15 15 16 16 16 17 18 18 19 19 20 20 21 21 22 22 23 24 24 24 25 25 25 25 25 25 25 26 25 25 26 26 26
11 11 12 12 13 13 14 14 14 15 16 16 17 17 18 19 19 20 20 21 21 22 23 23 23 24 24 25 25 25 25 25 26 26 26 26 27 27 27 27 27 27 27
10 11 12 12 13 13 14 14 15 16 17 17 18 19 19 20 21 21 22 22 23 23 24 24 25 25 25 26 26 26 26 27 27 27 27 28 28 28 28 28 28 28 28
11 12 12 13 14 15 15 16 16 17 18 19 19 20 21 22 22 23 23 24 24 25 25 26 26 26 27 27 28 28 28 28 29 29 29 29 29 30 30 30 29 29 29
13 13 14 15 15 16 16 17 17 18 19 20 20 21 22 23 23 24 24 25 25 26 26 27 28 28 29 29 29 30 30 30 30 30 31 31 31 31 31 31 31 31 31
15 16 16 17 17 18 18 19 19 20 20 21 21 22 23 23 24 24 25 25 26 27 27 28 28 29 30 30 31 31 32 32 32 32 32 33 33 33 33 33 33 33 33
18 18 19 19 20 20 20 21 21 21 21 22 22 22 23 23 24 24 25 25 26 27 27 28 29 30 31 31 32 32 33 33 34 34 34 34 35 35 35 36 36 36 36
20 20 20 21 21 21 22 22 22 22 22 23 23 23 23 23 24 24 25 26 27 27 28 29 30 31 31 32 33 33 34 34 35 35 36 36 36 37 37 38 38 39 39
22 22 22 22 22 22 23 23 23 23 23 23 23 23 23 24 24 25 25 26 27 28 29 30 31 31 32 32 33 34 34 35 36 37 37 38 38 39 39 40 40 41 41
24 24 24 23 23 23 23 24 23 23 23 23 23 23 24 24 25 26 27 28 29 30 31 32 32 33 33 34 34 35 35 36 37 37 38 39 39 39 40 41 42 42 43
25 26 26 25 25 24 25 25 24 24 24 24 24 24 25 26 26 28 29 30 31 31 32 33 33 34 35 35 36 36 36 37 38 38 39 39 40 40 40 41 41 42 43
26 27 27 26 26 26 26 25 25 24 24 24 25 25 26 27 28 29 31 32 32 33 34 34 35 35 36 36 36 36 37 38 38 39 39 40 40 41 41 41 42 43 43
28 28 28 28 27 27 26 26 25 25 25 26 26 27 28 29 30 31 32 33 34 34 35 35 35 36 36 36 37 37 37 38 38 39 40 40 41 42 42 42 43 43 44
29 29 29 29 28 28 27 26 26 26 26 27 27 28 29 30 31 32 33 34 34 35 35 35 35 36 36 37 37 37 37 38 39 40 40 41 41 42 43 43 43 44 44
30 30 30 29 29 28 28 27 27 27 28 28 29 30 31 31 32 33 34 34 35 35 36 36 36 37 37 37 37 37 38 39 39 40 41 42 42 43 43 44 44 45 45
31 31 30 30 30 29 29 29 29 29 29 30 31 32 32 33 33 34 35 35 36 36 37 37 37 38 38 38 38 38 39 40 41 41 42 43 43 44 44 45 46 46 47
32 31 31 31 31 30 30 30 30 30 31 32 32 33 34 34 34 35 36 37 37 38 38 38 38 39 39 40 40 40 40 41 42 43 44 45 46 46 47 48 48 49 50
32 32 32 31 31 31 31 31 32 32 32 33 34 34 35 35 36 37 37 38 38 39 39 40 40 40 41 42 43 43 42 42 42 43 45 46 48 48 49 50 51 53 54
33 32 32 32 32 32 32 32 33 33 34 34 35 36 36 37 38 39 39 39 40 40 40 41 42 42 43 44 45 45 46 46 45 43 43 46 48 50 51 52 54 55 57
33 33 33 33 34 34 34 34 34 35 35 36 36 37 37 38 39 40 40 41 41 42 43 43 44 44 45 45 46 47 48 49 50 49 47 47 49 51 53 54 56 57 58
34 34 34 34 35 35 35 35 35 36 36 36 37 38 39 40 41 41 42 43 43 44 44 45 46 46 46 47 48 49 50 51 52 53 53 52 51 51 53 55 56 58 59
Wind_Direction
242 246 250 254 258 261 263 266 268 270 271 272 274 276 278 280 281 281 282 283 283 283 282 282 282 281 281 280 279 278 278 277 277 275 274 273 272 271 271 269 267 265 264
246 248 250 255 258 261 264 267 268 270 271 272 273 275 277 278 279 279 280 281 281 281 281 280 279 279 278 278 277 277 277 276 275 273 272 271 270 269 268 267 266 265 264
248 249 252 255 257 260 263 266 268 269 271 273 274 275 277 278 279 279 280 280 281 281 280 280 280 279 278 278 277 277 276 276 275 274 273 272 271 269 268 266 265 265 263
251 252 254 257 260 263 265 267 268 270 272 274 275 277 278 279 280 280 281 281 282 282 282 281 280 280 279 279 278 278 277 276 275 275 274 273 272 271 270 268 267 265 264
251 254 258 260 262 265 266 266 267 270 272 274 276 277 278 279 280 281 282 283 283 283 283 282 282 281 281 281 280 280 279 278 276 275 274 273 272 272 271 270 269 267 266
252 255 260 262 265 267 268 268 270 271 273 274 276 277 279 280 282 283 283 284 284 284 284 284 283 283 282 282 282 281 280 279 278 277 275 274 274 273 272 272 271 270 269
254 258 261 265 268 270 271 273 274 275 276 278 279 280 281 282 283 283 284 285 285 285 285 284 283 284 284 283 283 282 281 281 280 279 277 276 275 274 273 273 272 271 271
260 262 265 267 269 271 273 276 277 278 279 281 282 283 283 284 284 284 284 285 285 286 285 285 285 284 284 284 284 283 282 282 281 280 279 278 276 275 274 273 272 272 271
264 267 269 270 271 274 276 278 280 281 281 282 283 284 284 284 284 285 285 285 286 286 286 286 285 285 285 284 284 283 283 282 281 281 279 278 277 276 274 273 273 272 271
268 270 272 274 275 277 279 281 282 283 283 283 284 285 285 285 286 286 286 286 286 287 287 286 286 285 284 284 283 283 282 282 281 281 280 279 277 276 274 273 272 272 271
272 273 274 276 278 279 281 282 284 284 284 285 285 285 286 286 287 287 287 287 287 287 287 287 286 285 284 283 282 282 281 281 280 280 279 278 277 275 274 272 271 271 270
275 276 277 278 280 281 282 283 284 284 285 286 287 287 286 287 287 288 289 289 289 288 288 287 287 286 285 284 283 281 280 279 279 278 277 276 275 274 273 272 271 270 269
277 277 278 279 280 281 282 283 284 284 286 287 287 287 287 288 289 290 290 290 290 290 290 290 289 288 287 286 284 283 282 280 279 278 276 275 274 273 272 271 270 270 269
276 277 279 280 281 281 282 282 283 284 286 286 286 287 288 289 289 290 291 291 292 292 291 291 291 290 288 287 286 285 284 282 281 279 278 276 275 274 272 271 271 270 269
276 277 278 280 280 281 281 282 282 283 284 285 285 286 287 288 290 290 291 292 293 293 293 292 291 291 290 288 288 287 286 284 283 281 280 279 278 277 275 274 273 272 271
276 276 277 278 278 279 279 280 281 282 283 283 284 285 287 288 290 291 292 293 293 293 292 292 291 291 290 290 289 288 287 286 284 283 282 281 280 279 278 277 275 274 274
275 276 276 276 277 277 277 278 280 281 281 282 283 284 286 288 290 291 292 293 293 294 293 293 292 291 291 290 289 288 287 286 285 284 283 282 281 280 279 278 278 277 276
274 275 275 275 275 275 275 276 278 279 281 282 283 284 286 287 289 291 292 293 294 294 294 293 293 292 292 291 290 288 287 286 286 286 285 284 283 283 282 280 280 279 278
273 273 273 273 273 273 274 275 276 278 280 281 283 284 286 288 290 291 292 293 293 294 294 294 293 292 292 291 290 289 288 287 287 287 286 285 285 284 283 282 281 280 279
272 271 270 271 271 272 273 274 275 278 280 281 283 284 286 288 290 291 292 293 294 294 294 293 293 292 291 290 289 288 288 288 287 287 286 286 285 284 283 283 282 282 281
271 270 269 269 270 271 272 273 275 277 279 280 282 284 286 288 289 291 292 293 294 294 294 294 293 292 291 289 288 287 287 287 287 287 286 285 285 284 284 283 283 282 281
270 269 269 268 269 269 271 272 274 276 278 280 282 285 287 288 290 292 293 294 295 295 295 294 293 292 291 289 288 286 285 286 286 286 286 285 285 285 284 284 284 283 283
270 268 268 268 268 269 270 272 273 275 278 281 283 286 287 289 291 293 293 294 295 295 295 295 294 293 291 290 289 287 285 284 283 285 286 286 286 285 285 285 284 284 284
268 267 267 268 268 269 270 271 273 276 278 281 284 286 287 289 291 292 293 294 295 296 296 296 294 293 292 291 290 289 288 287 284 282 282 284 284 285 285 286 285 285 285
267 267 267 268 269 269 270 272 274 276 279 281 284 286 288 290 291 292 293 294 295 296 296 296 296 295 294 292 291 291 290 289 288 286 284 283 283 284 285 285 285 285 285
266 266 267 267 268 269 270 272 274 277 279 282 284 287 289 291 292 293 293 295 296 296 297 297 296 296 295 294 293 292 291 290 290 289 288 286 285 285 285 286 286 285 285
Height
5874 5875 5875 5876 5876 5876 5877 5877 5877 5877 5877 5877 5877 5877 5876 5876 5876 5876 5875 5875 5875 5875 5874 5874 5874 5873 5873 5872 5872 5872 5872 5872 5871 5871 5871 5871 5871 5871 5871 5871 5871 5871 5871
5873 5873 5874 5874 5874 5874 5875 5875 5875 5875 5875 5875 5874 5874 5874 5873 5873 5873 5872 5872 5872 5872 5871 5871 5870 5870 5870 5869 5869 5868 5868 5868 5868 5868 5868 5867 5867 5867 5867 5867 5867 5867 5867
5871 5871 5872 5872 5872 5872 5872 5872 5872 5872 5872 5872 5872 5871 5871 5870 5870 5870 5869 5869 5869 5868 5868 5867 5867 5867 5866 5866 5865 5865 5865 5864 5864 5864 5864 5864 5863 5863 5863 5863 5863 5863 5863
5869 5869 5869 5870 5870 5870 5870 5870 5870 5870 5869 5869 5869 5868 5868 5868 5867 5867 5866 5866 5865 5865 5865 5864 5864 5863 5863 5862 5862 5861 5861 5861 5860 5860 5860 5860 5859 5859 5859 5859 5859 5859 5859
5867 5867 5867 5867 5867 5868 5868 5867 5867 5867 5867 5866 5866 5866 5865 5865 5864 5864 5863 5863 5862 5862 5861 5861 5860 5860 5859 5859 5858 5858 5857 5857 5857 5856 5856 5856 5855 5855 5855 5855 5855 5855 5855
5864 5865 5865 5865 5865 5865 5865 5865 5865 5864 5864 5864 5863 5863 5862 5862 5861 5861 5860 5860 5859 5858 5858 5857 5857 5856 5856 5855 5854 5854 5853 5853 5853 5852 5852 5852 5851 5851 5851 5851 5850 5850 5850
5863 5863 5863 5863 5863 5863 5863 5862 5862 5862 5861 5861 5860 5860 5859 5859 5858 5857 5857 5856 5856 5855 5854 5854 5853 5852 5852 5851 5851 5850 5850 5849 5849 5848 5848 5847 5847 5847 5846 5846 5846 5846 5846
5861 5861 5861 5861 5861 5860 5860 5860 5859 5859 5858 5858 5857 5856 5856 5855 5854 5854 5853 5853 5852 5851 5850 5850 5849 5848 5848 5847 5846 5846 5845 5845 5844 5844 5843 5843 5842 5842 5842 5842 5841 5841 5841
5859 5859 5858 5858 5858 5858 5857 5857 5856 5856 5855 5854 5853 5853 5852 5851 5851 5850 5849 5848 5848 5847 5846 5845 5845 5844 5843 5843 5842 5841 5841 5840 5839 5839 5838 5838 5837 5837 5837 5837 5836 5836 5836
5856 5856 5856 5856 5855 5855 5854 5854 5853 5852 5851 5850 5849 5849 5848 5847 5846 5846 5845 5844 5843 5842 5841 5841 5840 5839 5838 5837 5837 5836 5835 5835 5834 5834 5833 5832 5832 5831 5831 5831 5831 5831 5831
5854 5853 5853 5853 5852 5852 5851 5850 5849 5848 5847 5846 5845 5844 5843 5843 5842 5841 5840 5839 5838 5837 5836 5835 5834 5834 5833 5832 5831 5830 5829 5829 5828 5828 5827 5826 5826 5825 5825 5825 5825 5825 5825
5850 5850 5850 5849 5849 5848 5847 5846 5845 5844 5843 5842 5841 5840 5839 5838 5837 5836 5835 5834 5833 5832 5831 5830 5829 5828 5827 5826 5825 5824 5823 5822 5822 5821 5820 5820 5819 5818 5818 5818 5818 5818 5818
5846 5846 5846 5845 5845 5844 5843 5842 5841 5840 5839 5838 5837 5836 5834 5833 5832 5831 5830 5829 5828 5827 5826 5824 5823 5822 5821 5820 5819 5818 5817 5816 5815 5814 5813 5812 5811 5811 5810 5810 5810 5810 5810
5842 5841 5841 5841 5840 5839 5838 5837 5836 5835 5834 5833 5832 5831 5830 5829 5828 5826 5825 5824 5823 5821 5820 5819 5817 5816 5814 5813 5812 5811 5810 5808 5807 5806 5805 5804 5803 5803 5802 5802 5801 5801 5801
5837 5836 5836 5836 5835 5835 5834 5833 5832 5831 5829 5828 5827 5826 5825 5824 5823 5822 5820 5819 5818 5816 5814 5813 5811 5809 5808 5806 5805 5804 5802 5801 5799 5798 5797 5796 5795 5795 5794 5793 5793 5792 5792
5832 5832 5831 5831 5830 5830 5829 5828 5827 5826 5825 5823 5822 5821 5820 5819 5817 5816 5815 5813 5811 5810 5808 5806 5804 5803 5801 5799 5798 5796 5795 5793 5791 5790 5789 5788 5787 5786 5785 5784 5784 5783 5783
5827 5827 5826 5825 5825 5824 5823 5822 5821 5820 5819 5818 5817 5816 5815 5813 5812 5810 5808 5807 5805 5803 5801 5799 5797 5795 5794 5792 5790 5788 5787 5785 5783 5781 5780 5779 5778 5777 5776 5775 5774 5773 5772
5822 5821 5820 5820 5819 5818 5818 5817 5816 5815 5814 5813 5812 5810 5809 5807 5806 5804 5802 5800 5798 5796 5794 5792 5790 5788 5786 5785 5783 5781 5779 5777 5775 5773 5771 5770 5768 5767 5766 5765 5764 5763 5762
5816 5815 5815 5814 5813 5812 5812 5811 5810 5809 5808 5807 5806 5804 5803 5801 5800 5798 5796 5794 5791 5789 5787 5785 5783 5781 5779 5777 5775 5773 5771 5769 5767 5765 5763 5761 5759 5758 5756 5755 5754 5752 5751
5810 5809 5809 5808 5807 5806 5805 5805 5804 5803 5802 5801 5800 5798 5797 5795 5793 5791 5789 5787 5784 5782 5780 5778 5775 5773 5771 5770 5768 5765 5763 5761 5758 5756 5754 5752 5750 5748 5746 5745 5743 5741 5740
5803 5803 5802 5801 5801 5800 5799 5798 5798 5797 5796 5795 5793 5792 5790 5788 5786 5784 5782 5780 5777 5775 5772 5770 5768 5765 5763 5761 5760 5758 5755 5752 5750 5747 5744 5742 5740 5738 5736 5734 5732 5730 5728
5796 5796 5795 5795 5794 5794 5793 5792 5792 5791 5789 5788 5787 5785 5783 5781 5779 5777 5775 5772 5770 5767 5765 5762 5759 5757 5754 5752 5751 5749 5747 5745 5741 5738 5735 5732 5730 5727 5725 5723 5721 5718 5716
5789 5789 5789 5788 5788 5787 5787 5786 5785 5784 5783 5782 5780 5778 5776 5774 5772 5770 5767 5764 5762 5759 5756 5753 5751 5748 5745 5742 5740 5739 5737 5736 5733 5731 5726 5722 5719 5717 5714 5711 5708 5706 5703
5782 5782 5782 5781 5781 5780 5780 5779 5778 5777 5776 5775 5773 5771 5769 5767 5764 5762 5759 5756 5753 5750 5747 5744 5741 5738 5735 5732 5729 5727 5725 5723 5721 5722 5719 5714 5709 5706 5702 5699 5696 5692 5689
5775 5775 5774 5774 5774 5773 5772 5772 5771 5770 5769 5767 5765 5763 5761 5759 5756 5753 5751 5748 5745 5741 5738 5735 5732 5728 5725 5722 5719 5715 5712 5710 5707 5706 5707 5704 5700 5695 5691 5687 5682 5678 5675
5767 5767 5767 5766 5766 5765 5765 5764 5763 5762 5761 5759 5757 5755 5753 5751 5748 5745 5742 5739 5735 5732 5728 5725 5721 5718 5714 5711 5707 5704 5700 5697 5694 5690 5689 5689 5687 5684 5678 5673 5668 5664 5660